SCP
0 -0 -0 -0 0 -0 -0 -0 0 0 -0 0 0 0 0 0 0 0 0 2 6 3 2 2 2 1 0 0 1 0 0 0 0 0 0 0 0 0 0 0 0 0 0 0
-0 -0 -0 -0 -0 0 0 0 -0 0 0 0 0 0 0 1 1 0 3 4 1 0 0 0 0 0 0 0 0 0 0 0 -0 -0 0 0 0 0 0 0 0 0 0 0
0 0 0 -0 -0 -0 -0 -0 0 0 0 -0 0 -0 0 0 1 3 1 0 0 0 0 0 0 0 0 0 0 0 0 -0 -0 0 0 0 0 0 0 0 0 0 0 0
0 -0 -0 -0 -0 0 -0 -0 -0 0 -0 -0 0 0 0 0 4 1 0 0 0 0 0 0 0 0 0 0 0 0 0 -0 0 0 0 0 0 0 0 0 0 0 0 0
0 0 0 -0 -0 -0 -0 -0 -0 0 0 0 0 0 0 0 0 0 0 0 0 0 0 0 0 0 0 0 0 0 -0 -0 0 0 0 0 0 0 0 0 0 0 0 0
0 -0 0 -0 -0 -0 -0 0 -0 0 0 0 0 0 0 0 0 0 0 0 0 0 0 0 0 0 0 0 0 -0 -0 -0 0 0 0 0 0 0 0 0 0 0 0 0
-0 0 -0 -0 -0 -0 -0 0 -0 0 0 0 0 0 0 0 0 0 0 0 0 0 0 0 0 0 0 0 -0 -0 -0 0 0 0 0 0 0 0 0 0 0 0 0 0
-0 -0 0 -0 -0 -0 -0 -0 0 0 0 0 0 0 0 0 0 0 0 0 0 0 0 0 0 0 0 0 -0 -0 0 0 0 0 0 0 0 0 0 0 0 0 0 0
0 0 0 0 -0 0 -0 0 0 0 0 0 0 0 0 0 0 0 0 0 0 0 0 0 0 0 0 -0 -0 -0 0 0 0 0 0 0 0 0 0 0 0 0 0 0
-0 -0 -0 -0 -0 -0 0 0 0 0 0 0 0 0 0 0 0 0 0 0 0 0 0 0 0 0 0 0 0 0 0 0 0 0 0 0 0 0 0 0 0 0 0 0
0 0 -0 0 -0 0 0 0 0 0 0 0 0 0 0 0 0 0 0 0 0 0 0 0 0 0 0 0 0 0 0 -0 0 0 0 0 0 0 0 -0 -0 0 0 0
-0 0 0 0 0 0 0 0 0 0 0 0 0 0 0 0 0 0 0 0 0 0 0 0 0 0 0 0 0 0 0 0 0 0 0 0 0 -0 -0 -0 -0 0 0 0
0 -0 0 0 0 0 0 0 0 0 0 0 0 0 0 0 0 0 0 0 0 0 0 0 0 0 0 0 0 0 0 -0 0 0 0 -0 -0 -0 -0 0 0 0 0 0
0 0 0 0 0 0 0 0 0 0 0 0 0 0 0 0 0 0 0 0 0 0 0 0 0 0 0 -0 -0 -0 0 0 -0 -0 -0 -0 -0 0 0 0 0 0 0 0
0 0 0 0 0 0 0 0 0 0 0 0 0 0 0 0 0 0 0 0 0 0 0 0 0 -0 0 0 0 0 0 0 -0 -0 -0 -0 0 0 0 0 0 0 0 0
-0 0 0 0 0 0 0 0 0 -0 -0 0 0 0 0 0 0 0 0 0 0 0 0 0 -0 -0 -0 0 -0 -0 -0 -0 -0 -0 -0 0 0 0 0 0 0 0 0 0
-0 0 0 0 0 0 0 0 0 0 -0 0 0 0 0 0 0 0 0 0 0 0 0 -0 -0 -0 -0 -0 -0 0 -0 -0 -0 -0 -0 0 0 0 0 0 0 0 0 0
-0 0 0 0 0 0 0 0 0 0 0 0 0 0 0 0 0 0 0 0 0 0 0 0 0 0 -0 -0 -0 -0 -0 -0 -0 -0 0 0 0 0 0 0 0 0 0 0
0 0 0 0 0 0 0 0 0 0 0 0 0 0 0 0 0 0 0 0 0 0 0 0 0 0 0 0 -0 -0 -0 -0 -0 0 0 0 0 0 0 0 0 0 0 0
-0 0 0 0 0 0 0 0 0 0 0 0 0 0 0 0 0 0 0 0 0 0 0 0 0 0 -0 0 -0 -0 -0 -0 0 0 0 0 0 0 0 0 0 0 0 0
0 0 0 0 0 0 0 0 0 0 0 0 0 0 0 0 0 0 0 0 0 0 0 0 0 0 0 -0 -0 -0 -0 -0 0 0 0 0 0 0 0 0 0 0 0 0
0 0 0 0 0 0 0 0 0 0 0 0 0 0 0 0 0 0 0 0 0 0 0 0 0 0 0 0 -0 -0 -0 0 0 0 0 0 0 0 0 0 0 0 0 0
-0 0 0 0 0 0 0 0 0 0 0 0 0 0 0 0 0 0 0 0 0 0 0 0 0 0 0 -0 -0 -0 0 0 0 0 0 0 0 0 0 0 0 0 0 0
0 0 0 0 0 0 0 0 0 0 0 0 0 0 0 0 0 0 0 0 0 0 0 0 0 0 0 -0 -0 0 0 0 0 0 0 0 0 0 0 0 0 0 0 0
0 0 0 0 0 0 0 0 0 0 0 0 0 0 0 0 0 0 0 0 0 0 0 0 0 0 0 -0 0 0 0 0 0 0 0 0 0 0 0 0 0 0 0 0
0 0 0 0 0 0 0 0 0 0 0 0 0 0 0 0 0 0 0 0 0 0 0 0 0 0 0 0 0 0 0 0 0 0 0 0 0 0 0 0 0 0 0 0
0 0 0 0 0 0 0 0 0 0 0 0 0 0 0 0 0 0 0 0 0 0 0 0 0 -0 0 0 0 0 0 0 0 0 0 0 0 0 0 0 0 0 0 0
Wind_Speed_500mb
39 48 46 42 38 37 33 40 39 31 9 18 30 26 37 46 40 51 57 80 78 85 82 88 85 91 93 90 84 78 77 70 59 54 51 46 41 37 31 26 23 22 19 17
41 40 39 38 39 38 35 32 32 41 27 19 31 36 43 40 42 62 67 67 77 90 90 87 86 87 93 89 82 70 71 61 56 56 52 48 41 36 33 30 27 26 25 22
20 13 1 12 31 35 35 36 28 31 5 10 29 30 35 57 50 69 61 69 83 90 85 82 84 91 94 92 85 73 64 62 62 59 52 43 39 36 32 30 28 27 24 21
14 22 8 17 36 8 18 18 7 22 15 8 20 36 51 77 86 73 76 83 82 86 86 87 91 95 99 92 76 72 68 63 59 52 48 43 39 35 32 30 29 29 25 20
7 9 3 28 32 20 19 12 28 18 5 5 16 5 22 61 80 82 84 86 90 93 97 99 100 94 89 78 74 71 64 58 53 48 46 42 39 37 33 31 31 27 23 20
8 7 12 16 39 42 24 8 17 7 7 14 25 4 9 51 88 88 94 96 98 100 103 107 88 86 86 79 73 68 61 57 51 47 45 43 40 37 35 32 30 24 22 16
17 6 10 31 50 30 8 13 39 18 20 14 8 16 32 63 87 91 98 101 101 102 98 95 93 85 86 77 71 65 61 57 52 48 46 43 42 37 34 31 28 23 18 15
12 11 5 59 30 15 24 53 14 36 34 47 53 50 52 66 88 98 100 100 103 102 86 76 77 86 85 79 66 63 60 57 53 49 44 41 40 36 32 27 25 23 22 21
8 7 21 34 36 42 56 4 34 40 40 57 57 52 56 67 83 96 99 101 91 91 89 78 71 69 80 68 65 63 60 57 53 49 44 39 36 34 29 24 20 18 17 17
11 3 21 36 48 52 33 35 35 38 53 59 60 61 64 70 80 90 99 95 86 86 80 75 67 66 68 65 64 63 62 58 52 50 46 40 36 32 31 29 20 20 18 14
8 9 29 23 40 38 31 40 49 51 51 64 68 62 70 70 74 85 90 85 79 77 75 73 68 67 63 62 62 63 61 59 54 49 46 42 39 35 35 35 25 23 18 13
6 22 15 18 32 23 32 41 47 64 63 61 69 71 75 72 74 78 79 79 79 71 75 70 68 65 61 60 60 66 63 49 46 45 45 46 46 46 36 28 22 24 21 23
8 9 11 20 26 25 39 41 52 58 66 72 69 75 74 73 72 78 83 79 75 73 72 70 68 63 57 55 52 52 60 51 47 43 41 39 38 39 41 39 35 36 35 34
6 2 13 21 19 33 47 49 58 75 71 74 77 79 79 80 73 74 75 75 71 71 70 67 67 61 52 51 52 51 50 48 41 38 36 32 29 27 25 22 21 32 40 35
19 13 19 20 37 42 54 65 66 64 70 78 84 78 74 77 76 73 70 70 73 75 72 64 62 58 51 51 51 49 45 42 40 38 35 33 31 28 26 25 25 22 22 34
18 21 28 35 41 44 53 60 71 66 72 72 82 83 71 68 70 73 72 73 74 72 67 64 60 56 51 50 48 45 45 47 43 40 36 33 30 29 28 27 25 23 21 21
21 24 29 38 44 53 54 56 74 69 67 80 78 79 70 65 68 69 66 67 69 63 61 59 57 51 48 46 47 47 44 42 41 37 34 32 30 29 28 26 25 28 30 33
20 28 33 41 50 57 65 63 67 69 70 69 72 70 61 62 67 64 61 60 63 61 56 53 51 49 47 45 44 45 42 40 38 36 35 33 31 29 27 26 24 23 22 28
31 35 40 44 48 54 58 58 62 67 64 63 64 60 57 60 63 60 60 58 58 56 49 50 55 48 46 49 43 43 41 40 38 37 37 36 30 27 26 25 24 23 21 21
35 34 39 48 54 50 51 51 56 52 51 56 53 52 54 53 53 53 51 49 46 51 49 49 47 47 47 50 43 41 41 40 38 35 31 29 27 27 27 27 24 21 21 21
35 37 41 43 47 42 45 43 45 47 48 47 49 52 53 51 47 48 50 53 48 44 49 49 46 43 44 44 40 38 36 37 35 33 31 30 30 26 24 22 21 20 20 19
34 39 41 37 39 40 41 40 40 40 45 47 47 48 50 48 46 45 42 49 51 48 42 40 43 44 49 41 36 36 35 33 31 30 30 28 27 25 22 19 18 18 17 17
42 43 40 40 42 44 43 38 35 35 41 43 46 46 43 42 43 52 53 44 43 41 37 37 62 56 47 35 34 34 33 32 30 28 27 26 24 23 20 18 16 15 15 16
37 39 40 39 39 40 41 40 41 40 39 41 40 38 42 44 42 40 45 44 47 39 50 63 59 51 40 32 31 30 29 29 27 26 27 26 24 22 19 16 14 14 16 16
35 37 38 36 38 37 38 39 39 38 38 40 40 36 36 34 39 41 42 45 36 44 54 54 53 43 31 29 29 28 27 24 25 24 24 23 22 19 16 16 14 14 13 13
36 36 37 34 30 34 36 37 37 36 37 38 34 33 32 36 38 36 39 36 36 39 40 47 31 31 27 28 28 26 24 25 25 21 21 20 18 17 14 15 14 12 12 10
32 34 35 33 35 36 36 37 39 39 38 37 38 35 36 37 36 36 37 35 36 32 33 27 27 29 26 29 27 24 25 23 22 22 18 17 16 16 17 16 13 11 9 7
Wind_Direction_500mb
263 260 268 268 259 251 243 252 253 263 108 285 293 319 307 309 238 176 190 146 127 128 140 148 145 148 153 148 145 152 152 151 149 145 143 143 146 137 132 124 117 109 103 97
283 265 242 250 249 252 247 252 252 261 240 275 295 294 295 292 271 174 112 114 125 140 145 142 143 147 150 148 141 141 148 143 140 143 146 141 136 131 124 119 113 106 101 98
279 354 221 238 249 236 243 241 252 237 292 258 296 298 296 283 254 124 125 121 127 139 144 139 145 148 147 146 145 144 134 132 131 133 132 127 123 120 122 117 114 105 103 109
280 297 224 18 24 234 214 240 213 125 187 314 287 292 299 248 123 123 125 128 133 141 141 139 140 139 139 133 128 124 122 124 125 124 122 123 121 119 113 113 110 103 99 100
273 304 283 21 1 346 332 25 85 121 58 218 272 273 12 86 109 120 126 134 137 142 142 138 133 128 126 125 123 122 122 122 123 124 121 119 116 113 111 109 106 106 104 92
295 328 31 358 336 314 283 157 105 50 206 195 219 181 360 87 116 117 126 134 135 135 133 130 126 126 123 122 121 120 123 121 121 120 118 116 114 114 113 110 107 107 104 96
329 351 95 355 331 319 339 359 317 53 113 99 81 95 116 112 115 123 127 129 131 130 126 123 123 123 118 119 118 121 121 120 118 118 116 116 115 114 115 114 111 103 95 75
326 352 353 0 346 10 313 308 62 83 104 103 101 104 107 110 115 121 122 124 126 120 118 120 123 120 117 116 121 120 119 118 116 114 113 113 113 112 109 105 100 92 82 67
333 328 330 328 323 319 309 77 75 94 104 107 104 103 109 111 116 120 122 121 118 117 115 115 116 118 117 118 119 119 117 115 113 112 111 109 107 102 99 99 97 91 78 61
315 120 332 328 344 358 52 88 98 108 113 112 106 109 109 113 116 118 122 118 117 115 113 113 114 115 114 119 120 119 117 114 113 110 107 105 106 112 122 109 96 90 76 62
270 4 328 349 359 9 68 94 104 107 114 113 114 108 113 113 114 116 116 117 115 116 116 116 116 116 118 120 122 120 119 117 117 127 132 131 125 118 128 119 110 97 78 93
320 330 291 335 6 47 85 97 105 115 109 112 119 115 116 112 114 115 115 116 115 116 115 117 117 117 119 122 122 121 114 114 114 112 109 108 109 108 105 98 95 92 85 81
305 340 0 39 48 86 103 111 107 106 113 113 113 119 115 111 112 114 112 114 116 116 116 117 117 117 119 119 118 119 117 116 115 111 110 109 103 99 97 90 88 83 77 72
272 221 45 50 53 92 113 115 111 109 112 112 112 113 111 110 110 111 113 114 117 117 115 116 115 114 119 119 118 116 117 115 115 115 113 108 102 96 92 89 80 65 57 56
52 115 113 116 110 100 111 118 111 107 105 106 111 107 110 107 108 111 115 116 115 115 115 117 116 116 119 120 117 115 114 118 117 116 117 114 111 110 106 99 89 75 49 36
77 103 111 105 105 100 108 109 111 107 108 108 111 106 103 106 110 110 111 113 115 115 117 115 114 117 120 119 119 118 121 121 114 111 109 110 109 107 99 89 83 75 71 61
90 95 105 100 103 106 98 106 119 111 111 110 108 110 106 105 107 107 111 114 113 114 117 118 116 119 117 116 115 114 113 112 115 113 113 112 108 102 97 92 84 76 68 78
111 110 113 113 112 111 106 103 117 114 111 111 111 110 109 110 110 111 115 117 115 113 112 115 118 119 118 117 117 114 113 115 117 114 110 107 104 100 97 93 87 78 66 55
118 111 117 113 110 108 117 105 107 116 114 113 110 115 117 113 114 119 121 118 117 117 118 120 119 117 120 119 117 118 120 119 117 115 109 101 101 100 96 93 87 80 73 63
121 118 117 120 115 108 109 112 119 117 115 114 119 120 120 122 123 123 121 118 120 120 121 119 119 118 117 118 119 120 117 113 111 110 113 111 108 103 103 97 87 78 71 64
133 127 117 124 117 113 112 117 113 117 124 127 127 125 124 126 130 127 122 121 121 122 122 116 118 119 120 116 117 117 119 115 114 114 114 110 106 103 98 94 87 82 75 67
139 132 131 124 121 119 124 121 122 127 132 132 131 129 126 124 126 124 124 125 126 118 122 125 127 124 121 118 120 117 117 120 119 118 116 113 110 106 101 96 90 84 78 73
138 132 132 134 131 129 130 131 130 129 132 133 131 130 129 128 128 124 123 126 123 127 132 134 129 122 116 122 122 122 124 124 123 119 117 114 110 107 104 98 93 90 81 70
135 135 135 130 132 136 137 140 140 139 136 135 134 133 130 127 123 127 128 140 136 137 130 131 125 119 117 123 126 127 126 122 120 123 124 116 107 100 95 93 89 77 66 70
142 141 140 143 139 140 142 142 141 139 137 136 135 132 132 133 133 132 132 137 144 139 137 135 126 118 124 131 128 127 126 129 127 125 123 118 116 118 120 118 110 97 79 73
147 148 149 150 151 149 148 147 146 145 143 139 137 137 135 132 133 134 132 133 140 143 142 142 127 118 137 134 133 133 142 143 126 130 130 124 128 130 122 105 96 90 85 71
150 151 149 149 151 154 153 156 152 152 150 149 144 144 142 137 137 141 143 146 141 147 142 147 143 140 146 138 141 140 135 136 145 134 139 141 144 139 134 129 121 112 93 71
Wind_Speed_850mb
39 48 46 42 38 37 33 40 39 31 9 18 30 26 37 46 40 51 57 80 78 85 82 88 85 91 93 90 84 78 77 70 59 54 51 46 41 37 31 26 23 22 19 17
41 40 39 38 39 38 35 32 32 41 27 19 31 36 43 40 42 62 67 67 77 90 90 87 86 87 93 89 82 70 71 61 56 56 52 48 41 36 33 30 27 26 25 22
20 13 1 12 31 35 35 36 28 31 5 10 29 30 35 57 50 69 61 69 83 90 85 82 84 91 94 92 85 73 64 62 62 59 52 43 39 36 32 30 28 27 24 21
14 22 8 17 36 8 18 18 7 22 15 8 20 36 51 77 86 73 76 83 82 86 86 87 91 95 99 92 76 72 68 63 59 52 48 43 39 35 32 30 29 29 25 20
7 9 3 28 32 20 19 12 28 18 5 5 16 5 22 61 80 82 84 86 90 93 97 99 100 94 89 78 74 71 64 58 53 48 46 42 39 37 33 31 31 27 23 20
8 7 12 16 39 42 24 8 17 7 7 14 25 4 9 51 88 88 94 96 98 100 103 107 88 86 86 79 73 68 61 57 51 47 45 43 40 37 35 32 30 24 22 16
17 6 10 31 50 30 8 13 39 18 20 14 8 16 32 63 87 91 98 101 101 102 98 95 93 85 86 77 71 65 61 57 52 48 46 43 42 37 34 31 28 23 18 15
12 11 5 59 30 15 24 53 14 36 34 47 53 50 52 66 88 98 100 100 103 102 86 76 77 86 85 79 66 63 60 57 53 49 44 41 40 36 32 27 25 23 22 21
8 7 21 34 36 42 56 4 34 40 40 57 57 52 56 67 83 96 99 101 91 91 89 78 71 69 80 68 65 63 60 57 53 49 44 39 36 34 29 24 20 18 17 17
11 3 21 36 48 52 33 35 35 38 53 59 60 61 64 70 80 90 99 95 86 86 80 75 67 66 68 65 64 63 62 58 52 50 46 40 36 32 31 29 20 20 18 14
8 9 29 23 40 38 31 40 49 51 51 64 68 62 70 70 74 85 90 85 79 77 75 73 68 67 63 62 62 63 61 59 54 49 46 42 39 35 35 35 25 23 18 13
6 22 15 18 32 23 32 41 47 64 63 61 69 71 75 72 74 78 79 79 79 71 75 70 68 65 61 60 60 66 63 49 46 45 45 46 46 46 36 28 22 24 21 23
8 9 11 20 26 25 39 41 52 58 66 72 69 75 74 73 72 78 83 79 75 73 72 70 68 63 57 55 52 52 60 51 47 43 41 39 38 39 41 39 35 36 35 34
6 2 13 21 19 33 47 49 58 75 71 74 77 79 79 80 73 74 75 75 71 71 70 67 67 61 52 51 52 51 50 48 41 38 36 32 29 27 25 22 21 32 40 35
19 13 19 20 37 42 54 65 66 64 70 78 84 78 74 77 76 73 70 70 73 75 72 64 62 58 51 51 51 49 45 42 40 38 35 33 31 28 26 25 25 22 22 34
18 21 28 35 41 44 53 60 71 66 72 72 82 83 71 68 70 73 72 73 74 72 67 64 60 56 51 50 48 45 45 47 43 40 36 33 30 29 28 27 25 23 21 21
21 24 29 38 44 53 54 56 74 69 67 80 78 79 70 65 68 69 66 67 69 63 61 59 57 51 48 46 47 47 44 42 41 37 34 32 30 29 28 26 25 28 30 33
20 28 33 41 50 57 65 63 67 69 70 69 72 70 61 62 67 64 61 60 63 61 56 53 51 49 47 45 44 45 42 40 38 36 35 33 31 29 27 26 24 23 22 28
31 35 40 44 48 54 58 58 62 67 64 63 64 60 57 60 63 60 60 58 58 56 49 50 55 48 46 49 43 43 41 40 38 37 37 36 30 27 26 25 24 23 21 21
35 34 39 48 54 50 51 51 56 52 51 56 53 52 54 53 53 53 51 49 46 51 49 49 47 47 47 50 43 41 41 40 38 35 31 29 27 27 27 27 24 21 21 21
35 37 41 43 47 42 45 43 45 47 48 47 49 52 53 51 47 48 50 53 48 44 49 49 46 43 44 44 40 38 36 37 35 33 31 30 30 26 24 22 21 20 20 19
34 39 41 37 39 40 41 40 40 40 45 47 47 48 50 48 46 45 42 49 51 48 42 40 43 44 49 41 36 36 35 33 31 30 30 28 27 25 22 19 18 18 17 17
42 43 40 40 42 44 43 38 35 35 41 43 46 46 43 42 43 52 53 44 43 41 37 37 62 56 47 35 34 34 33 32 30 28 27 26 24 23 20 18 16 15 15 16
37 39 40 39 39 40 41 40 41 40 39 41 40 38 42 44 42 40 45 44 47 39 50 63 59 51 40 32 31 30 29 29 27 26 27 26 24 22 19 16 14 14 16 16
35 37 38 36 38 37 38 39 39 38 38 40 40 36 36 34 39 41 42 45 36 44 54 54 53 43 31 29 29 28 27 24 25 24 24 23 22 19 16 16 14 14 13 13
36 36 37 34 30 34 36 37 37 36 37 38 34 33 32 36 38 36 39 36 36 39 40 47 31 31 27 28 28 26 24 25 25 21 21 20 18 17 14 15 14 12 12 10
32 34 35 33 35 36 36 37 39 39 38 37 38 35 36 37 36 36 37 35 36 32 33 27 27 29 26 29 27 24 25 23 22 22 18 17 16 16 17 16 13 11 9 7
Wind_Direction_850mb
263 260 268 268 259 251 243 252 253 263 108 285 293 319 307 309 238 176 190 146 127 128 140 148 145 148 153 148 145 152 152 151 149 145 143 143 146 137 132 124 117 109 103 97
283 265 242 250 249 252 247 252 252 261 240 275 295 294 295 292 271 174 112 114 125 140 145 142 143 147 150 148 141 141 148 143 140 143 146 141 136 131 124 119 113 106 101 98
279 354 221 238 249 236 243 241 252 237 292 258 296 298 296 283 254 124 125 121 127 139 144 139 145 148 147 146 145 144 134 132 131 133 132 127 123 120 122 117 114 105 103 109
280 297 224 18 24 234 214 240 213 125 187 314 287 292 299 248 123 123 125 128 133 141 141 139 140 139 139 133 128 124 122 124 125 124 122 123 121 119 113 113 110 103 99 100
273 304 283 21 1 346 332 25 85 121 58 218 272 273 12 86 109 120 126 134 137 142 142 138 133 128 126 125 123 122 122 122 123 124 121 119 116 113 111 109 106 106 104 92
295 328 31 358 336 314 283 157 105 50 206 195 219 181 360 87 116 117 126 134 135 135 133 130 126 126 123 122 121 120 123 121 121 120 118 116 114 114 113 110 107 107 104 96
329 351 95 355 331 319 339 359 317 53 113 99 81 95 116 112 115 123 127 129 131 130 126 123 123 123 118 119 118 121 121 120 118 118 116 116 115 114 115 114 111 103 95 75
326 352 353 0 346 10 313 308 62 83 104 103 101 104 107 110 115 121 122 124 126 120 118 120 123 120 117 116 121 120 119 118 116 114 113 113 113 112 109 105 100 92 82 67
333 328 330 328 323 319 309 77 75 94 104 107 104 103 109 111 116 120 122 121 118 117 115 115 116 118 117 118 119 119 117 115 113 112 111 109 107 102 99 99 97 91 78 61
315 120 332 328 344 358 52 88 98 108 113 112 106 109 109 113 116 118 122 118 117 115 113 113 114 115 114 119 120 119 117 114 113 110 107 105 106 112 122 109 96 90 76 62
270 4 328 349 359 9 68 94 104 107 114 113 114 108 113 113 114 116 116 117 115 116 116 116 116 116 118 120 122 120 119 117 117 127 132 131 125 118 128 119 110 97 78 93
320 330 291 335 6 47 85 97 105 115 109 112 119 115 116 112 114 115 115 116 115 116 115 117 117 117 119 122 122 121 114 114 114 112 109 108 109 108 105 98 95 92 85 81
305 340 0 39 48 86 103 111 107 106 113 113 113 119 115 111 112 114 112 114 116 116 116 117 117 117 119 119 118 119 117 116 115 111 110 109 103 99 97 90 88 83 77 72
272 221 45 50 53 92 113 115 111 109 112 112 112 113 111 110 110 111 113 114 117 117 115 116 115 114 119 119 118 116 117 115 115 115 113 108 102 96 92 89 80 65 57 56
52 115 113 116 110 100 111 118 111 107 105 106 111 107 110 107 108 111 115 116 115 115 115 117 116 116 119 120 117 115 114 118 117 116 117 114 111 110 106 99 89 75 49 36
77 103 111 105 105 100 108 109 111 107 108 108 111 106 103 106 110 110 111 113 115 115 117 115 114 117 120 119 119 118 121 121 114 111 109 110 109 107 99 89 83 75 71 61
90 95 105 100 103 106 98 106 119 111 111 110 108 110 106 105 107 107 111 114 113 114 117 118 116 119 117 116 115 114 113 112 115 113 113 112 108 102 97 92 84 76 68 78
111 110 113 113 112 111 106 103 117 114 111 111 111 110 109 110 110 111 115 117 115 113 112 115 118 119 118 117 117 114 113 115 117 114 110 107 104 100 97 93 87 78 66 55
118 111 117 113 110 108 117 105 107 116 114 113 110 115 117 113 114 119 121 118 117 117 118 120 119 117 120 119 117 118 120 119 117 115 109 101 101 100 96 93 87 80 73 63
121 118 117 120 115 108 109 112 119 117 115 114 119 120 120 122 123 123 121 118 120 120 121 119 119 118 117 118 119 120 117 113 111 110 113 111 108 103 103 97 87 78 71 64
133 127 117 124 117 113 112 117 113 117 124 127 127 125 124 126 130 127 122 121 121 122 122 116 118 119 120 116 117 117 119 115 114 114 114 110 106 103 98 94 87 82 75 67
139 132 131 124 121 119 124 121 122 127 132 132 131 129 126 124 126 124 124 125 126 118 122 125 127 124 121 118 120 117 117 120 119 118 116 113 110 106 101 96 90 84 78 73
138 132 132 134 131 129 130 131 130 129 132 133 131 130 129 128 128 124 123 126 123 127 132 134 129 122 116 122 122 122 124 124 123 119 117 114 110 107 104 98 93 90 81 70
135 135 135 130 132 136 137 140 140 139 136 135 134 133 130 127 123 127 128 140 136 137 130 131 125 119 117 123 126 127 126 122 120 123 124 116 107 100 95 93 89 77 66 70
142 141 140 143 139 140 142 142 141 139 137 136 135 132 132 133 133 132 132 137 144 139 137 135 126 118 124 131 128 127 126 129 127 125 123 118 116 118 120 118 110 97 79 73
147 148 149 150 151 149 148 147 146 145 143 139 137 137 135 132 133 134 132 133 140 143 142 142 127 118 137 134 133 133 142 143 126 130 130 124 128 130 122 105 96 90 85 71
150 151 149 149 151 154 153 156 152 152 150 149 144 144 142 137 137 141 143 146 141 147 142 147 143 140 146 138 141 140 135 136 145 134 139 141 144 139 134 129 121 112 93 71